Location: Newark
(25.0000°N, 73.5000°E)
Time: 22:36:22
(UTC+00:00)

Transit 2A Rocket - Pass Details

Date: 08 August 2021
Orbit: 586 x 916 km, 66.7° (Epoch: 16 September)

Event Time Altitude Azimuth Distance (km) Brightness Sun altitude
Rises 17:42:57 0° 324° (NW) 3,432 9.2 -43.7°
Reaches altitude 10° 17:45:34 10° 315° (NW) 2,531 8.2 -44.0°
Enters shadow 17:46:44 16° 309° (NW) 2,166 7.8 -44.1°
